TimeCST,TemperatureF,Dew PointF,Humidity,Sea Level PressureIn,VisibilityMPH,Wind Direction,Wind SpeedMPH,Gust SpeedMPH,PrecipitationIn,Events,Conditions,WindDirDegrees,DateUTC
12:13 AM,41.0,39.2,93,29.81,0.8,ESE,6.9,-,N/A,,Mist,120,2013-01-29 06:13:00
12:32 AM,41.0,39.2,93,29.80,0.5,SE,5.8,-,N/A,Fog,Fog,130,2013-01-29 06:32:00
12:51 AM,45.0,43.0,93,29.80,0.2,SE,5.8,-,N/A,Fog,Fog,130,2013-01-29 06:51:00
1:51 AM,51.1,50.0,96,29.75,0.5,South,9.2,-,N/A,Fog,Fog,170,2013-01-29 07:51:00
2:16 AM,53.6,53.6,100,29.74,0.8,South,12.7,-,0.00,Rain,Light Rain,180,2013-01-29 08:16:00
2:26 AM,53.6,53.6,100,29.73,1.8,South,13.8,23.0,0.02,Rain,Light Rain,180,2013-01-29 08:26:00
2:35 AM,55.4,53.6,94,29.73,3.0,South,12.7,-,0.03,Rain,Light Rain,190,2013-01-29 08:35:00
2:51 AM,55.9,54.0,93,29.73,4.0,South,15.0,20.7,0.04,,Overcast,190,2013-01-29 08:51:00
3:29 AM,57.2,55.4,94,29.70,6.0,SSW,15.0,25.3,0.00,,Overcast,200,2013-01-29 09:29:00
3:51 AM,57.9,55.9,93,29.70,7.0,SSW,19.6,27.6,0.00,,Overcast,210,2013-01-29 09:51:00
4:51 AM,59.0,55.9,90,29.70,8.0,SSW,17.3,27.6,N/A,,Overcast,200,2013-01-29 10:51:00
5:51 AM,57.9,55.0,90,29.68,8.0,SSW,18.4,26.5,N/A,,Overcast,200,2013-01-29 11:51:00
6:51 AM,59.0,55.4,88,29.66,8.0,SSW,17.3,25.3,N/A,,Overcast,200,2013-01-29 12:51:00
7:51 AM,60.1,55.0,83,29.68,8.0,SSW,23.0,32.2,N/A,,Overcast,200,2013-01-29 13:51:00
8:51 AM,59.0,55.0,87,29.68,8.0,SSW,17.3,25.3,N/A,,Overcast,210,2013-01-29 14:51:00
9:51 AM,60.1,55.9,86,29.68,8.0,SSW,16.1,25.3,N/A,,Overcast,200,2013-01-29 15:51:00
10:19 AM,59.0,55.4,88,29.66,7.0,SSW,13.8,-,N/A,,Overcast,200,2013-01-29 16:19:00
10:51 AM,60.1,55.9,86,29.66,6.0,SSW,15.0,23.0,N/A,,Overcast,210,2013-01-29 16:51:00
11:51 AM,61.0,57.0,87,29.63,7.0,SSW,13.8,-,N/A,,Overcast,210,2013-01-29 17:51:00
12:51 PM,61.0,55.9,83,29.60,6.0,SSW,19.6,25.3,N/A,,Haze,200,2013-01-29 18:51:00
1:51 PM,61.0,57.0,87,29.54,7.0,South,13.8,26.5,N/A,,Overcast,190,2013-01-29 19:51:00
2:21 PM,60.8,55.4,82,29.55,2.0,SSW,16.1,23.0,0.03,Rain,Light Rain,210,2013-01-29 20:21:00
2:29 PM,60.8,57.2,88,29.54,3.0,SSW,13.8,23.0,0.05,Rain,Light Rain,200,2013-01-29 20:29:00
2:51 PM,61.0,57.0,87,29.52,6.0,SSW,16.1,21.9,0.05,Rain,Light Rain,200,2013-01-29 20:51:00
3:51 PM,61.0,57.0,87,29.51,5.0,South,16.1,25.3,0.03,,Overcast,190,2013-01-29 21:51:00
4:51 PM,61.0,55.9,83,29.47,5.0,South,18.4,26.5,0.00,Rain-Thunderstorm,Light Thunderstorms and Rain,180,2013-01-29 22:51:00
5:12 PM,60.8,55.4,82,29.47,5.0,South,16.1,24.2,0.00,,Haze,190,2013-01-29 23:12:00
5:19 PM,60.8,55.4,82,29.47,5.0,SSW,11.5,23.0,0.00,Thunderstorm,Overcast,210,2013-01-29 23:19:00
5:30 PM,60.8,55.4,82,29.48,1.0,SW,8.1,-,0.17,Rain-Thunderstorm,Heavy Thunderstorms and Rain,220,2013-01-29 23:30:00
5:38 PM,59.0,57.2,94,29.49,2.0,SSW,6.9,-,0.28,Rain-Thunderstorm,Heavy Thunderstorms and Rain,210,2013-01-29 23:38:00
5:51 PM,57.9,55.9,93,29.47,2.5,NW,11.5,-,0.32,Rain-Thunderstorm,Light Thunderstorms and Rain,320,2013-01-29 23:51:00
5:58 PM,57.2,53.6,88,29.47,6.0,NW,10.4,-,0.00,Rain,Light Rain,320,2013-01-29 23:58:00
6:11 PM,55.4,53.6,94,29.47,2.0,WNW,6.9,-,0.04,Rain,Rain,300,2013-01-30 00:11:00
6:29 PM,55.4,53.6,94,29.49,2.0,West,8.1,-,0.12,Rain,Rain,280,2013-01-30 00:29:00
6:51 PM,55.0,53.1,93,29.47,2.5,NW,5.8,-,0.19,Rain,Rain,310,2013-01-30 00:51:00
7:51 PM,55.0,53.1,93,29.48,3.0,SSW,5.8,-,0.11,Rain,Light Rain,200,2013-01-30 01:51:00
8:06 PM,53.6,53.6,100,29.47,4.0,Calm,Calm,-,0.00,Rain,Light Rain,0,2013-01-30 02:06:00
8:51 PM,54.0,52.0,93,29.45,3.0,SSW,4.6,-,0.02,Rain,Light Rain,210,2013-01-30 02:51:00
9:16 PM,53.6,53.6,100,29.45,2.5,South,8.1,-,0.02,Rain,Light Rain,190,2013-01-30 03:16:00
9:42 PM,53.6,51.8,94,29.43,2.5,Calm,Calm,-,0.05,Rain,Light Rain,0,2013-01-30 03:42:00
9:49 PM,53.6,51.8,94,29.43,2.0,SW,3.5,-,0.05,Rain,Light Rain,230,2013-01-30 03:49:00
9:51 PM,54.0,52.0,93,29.43,2.0,SW,4.6,-,0.05,Rain,Light Rain,220,2013-01-30 03:51:00
10:06 PM,53.6,51.8,94,29.43,4.0,SW,3.5,-,0.02,Rain,Light Rain,230,2013-01-30 04:06:00
10:51 PM,53.1,52.0,96,29.42,3.0,WSW,4.6,-,0.09,Rain,Light Rain,250,2013-01-30 04:51:00
11:00 PM,53.6,51.8,94,29.42,4.0,SW,5.8,-,0.01,Rain,Light Rain,230,2013-01-30 05:00:00
11:49 PM,53.6,51.8,94,29.39,4.0,Calm,Calm,-,0.09,Rain,Light Rain,0,2013-01-30 05:49:00
11:51 PM,53.1,52.0,96,29.39,4.0,Calm,Calm,-,0.09,Rain,Light Rain,0,2013-01-30 05:51:00